H1 CPF 2 NER 2025 9 2 9 245 01 glonass140 H2 1903001 9140 44299 2025 9 2 0 0 0 2025 9 5 23 45 0 900 1 1 0 0 0 1 H9 10 0 60920 0.00000 0 7693756.477 -7944902.224 23013569.880 10 0 60920 900.00000 0 9887450.239 -6182570.423 22714956.848 10 0 60920 1800.00000 0 12150521.368 -4619886.199 21976529.361 10 0 60920 2700.00000 0 14420697.169 -3285446.099 20812565.955 10 0 60920 3600.00000 0 16632593.712 -2196011.529 19245559.326 10 0 60920 4500.00000 0 18720282.723 -1356019.454 17305789.547 10 0 60920 5400.00000 0 20619899.055 -757616.911 15030749.273 10 0 60920 6300.00000 0 22272181.563 -381217.305 12464430.862 10 0 60920 7200.00000 0 23624842.481 -196555.059 9656487.851 10 0 60920 8100.00000 0 24634667.014 -164194.424 6661285.688 10 0 60920 9000.00000 0 25269255.478 -237429.336 3536858.870 10 0 60920 9900.00000 0 25508334.691 -364494.555 343793.807 10 0 60920 10800.00000 0 25344582.920 -490995.071 -2855941.590 10 0 60920 11700.00000 0 24783932.680 -562451.085 -6000199.156 10 0 60920 12600.00000 0 23845337.465 -526850.644 -9027859.162 10 0 60920 13500.00000 0 22560010.915 -337101.190 -11880022.586 10 0 60920 14400.00000 0 20970169.207 46724.778 -14501163.252 10 0 60920 15300.00000 0 19127328.509 655446.437 -16840216.633 10 0 60920 16200.00000 0 17090228.251 1509217.661 -18851583.371 10 0 60920 17100.00000 0 14922466.906 2616424.063 -20496027.177 10 0 60920 18000.00000 0 12689949.280 3973082.657 -21741448.857 10 0 60920 18900.00000 0 10458252.333 5562771.430 -22563520.755 10 0 60920 19800.00000 0 8290020.035 7357093.705 -22946168.674 10 0 60920 20700.00000 0 6242496.591 9316659.351 -22881891.423 10 0 60920 21600.00000 0 4365301.448 11392542.985 -22371911.379 10 0 60920 22500.00000 0 2698539.235 13528158.893 -21426152.877 10 0 60920 23400.00000 0 1271323.562 15661474.604 -20063048.635 10 0 60920 24300.00000 0 100775.994 17727470.520 -18309177.935 10 0 60920 25200.00000 0 -808458.716 19660742.387 -16198743.667 10 0 60920 26100.00000 0 -1464162.007 21398137.158 -13772898.691 10 0 60920 27000.00000 0 -1885959.220 22881311.260 -11078935.049 10 0 60920 27900.00000 0 -2104231.995 24059103.545 -8169352.473 10 0 60920 28800.00000 0 -2158573.220 24889622.969 -5100825.157 10 0 60920 29700.00000 0 -2095851.837 25341963.329 -1933087.896 10 0 60920 30600.00000 0 -1967971.295 25397473.282 1272235.725 10 0 60920 31500.00000 0 -1829418.252 25050528.890 4452839.206 10 0 60920 32400.00000 0 -1734706.741 24308777.150 7546948.765 10 0 60920 33300.00000 0 -1735827.057 23192841.442 10494524.441 10 0 60920 34200.00000 0 -1879807.940 21735502.512 13238423.010 10 0 60920 35100.00000 0 -2206495.352 19980390.548 15725500.195 10 0 60920 36000.00000 0 -2746641.548 17980244.139 17907631.318 10 0 60920 36900.00000 0 -3520384.678 15794809.630 19742631.450 10 0 60920 37800.00000 0 -4536182.490 13488468.827 21195058.445 10 0 60920 38700.00000 0 -5790244.571 11127693.701 22236884.724 10 0 60920 39600.00000 0 -7266486.784 8778433.327 22848026.248 10 0 60920 40500.00000 0 -8937009.948 6503540.500 23016719.839 10 0 60920 41400.00000 0 -10763083.295 4360343.389 22739742.712 10 0 60920 42300.00000 0 -12696592.582 2398461.310 22022470.731 10 0 60920 43200.00000 0 -14681893.759 657953.474 20878774.667 10 0 60920 44100.00000 0 -16657996.482 -832124.162 19330756.318 10 0 60920 45000.00000 0 -18560988.161 -2054695.418 17408329.062 10 0 60920 45900.00000 0 -20326599.142 -3005134.399 15148650.028 10 0 60920 46800.00000 0 -21892803.537 -3691211.208 12595413.622 10 0 60920 47700.00000 0 -23202348.246 -4132515.610 9798018.790 10 0 60920 48600.00000 0 -24205105.202 -4359382.950 6810624.751 10 0 60920 49500.00000 0 -24860148.656 -4411367.356 3691112.282 10 0 60920 50400.00000 0 -25137470.167 -4335326.205 499969.745 10 0 60920 51300.00000 0 -25019258.635 -4183196.411 -2700875.201 10 0 60920 52200.00000 0 -24500690.514 -4009556.296 -5849255.857 10 0 60920 53100.00000 0 -23590195.617 -3869076.263 -8883975.317 10 0 60920 54000.00000 0 -22309185.825 -3813966.539 -11746000.051 10 0 60920 54900.00000 0 -20691256.590 -3891530.808 -14379614.496 10 0 60920 55800.00000 0 -18780893.405 -4141930.401 -16733513.413 10 0 60920 56700.00000 0 -16631736.407 -4596255.038 -18761809.986 10 0 60920 57600.00000 0 -14304475.035 -5274983.382 -20424939.254 10 0 60920 58500.00000 0 -11864460.456 -6186900.197 -21690438.518 10 0 60920 59400.00000 0 -9379135.442 -7328517.638 -22533588.876 10 0 60920 60300.00000 0 -6915389.176 -8684026.828 -22937904.833 10 0 60920 61200.00000 0 -4536947.674 -10225783.328 -22895461.962 10 0 60920 62100.00000 0 -2301909.013 -11915307.360 -22407055.857 10 0 60920 63000.00000 0 -260526.387 -13704757.781 -21482188.997 10 0 60920 63900.00000 0 1546668.434 -15538818.430 -20138885.559 10 0 60920 64800.00000 0 3090323.193 -17356917.930 -18403337.737 10 0 60920 65700.00000 0 4353244.455 -19095689.621 -16309390.496 10 0 60920 66600.00000 0 5330858.186 -20691567.964 -13897875.032 10 0 60920 67500.00000 0 6031133.765 -22083411.789 -11215804.370 10 0 60920 68400.00000 0 6473976.375 -23215043.616 -8315447.364 10 0 60920 69300.00000 0 6690115.430 -24037597.682 -5253299.978 10 0 60920 70200.00000 0 6719538.037 -24511577.645 -2088974.846 10 0 60920 71100.00000 0 6609535.812 -24608537.268 1115968.272 10 0 60920 72000.00000 0 6412449.619 -24312313.609 4299227.297 10 0 60920 72900.00000 0 6183209.338 -23619761.394 7398973.591 10 0 60920 73800.00000 0 5976774.100 -22540958.467 10355054.389 10 0 60920 74700.00000 0 5845582.175 -21098874.681 13110158.165 10 0 60920 75600.00000 0 5837118.741 -19328519.077 15610920.366 10 0 60920 76500.00000 0 5991704.303 -17275601.978 17808948.565 10 0 60920 77400.00000 0 6340596.677 -14994768.584 19661747.966 10 0 60920 78300.00000 0 6904485.992 -12547478.094 21133530.552 10 0 60920 79200.00000 0 7692445.382 -9999616.536 22195893.589 10 0 60920 80100.00000 0 8701380.934 -7418942.029 22828355.820 10 0 60920 81000.00000 0 9916003.706 -4872467.502 23018742.353 10 0 60920 81900.00000 0 11309325.086 -2423888.013 22763411.985 10 0 60920 82800.00000 0 12843655.287 -131157.686 22067323.338 10 0 60920 83700.00000 0 14472064.178 1955685.148 20943938.950 10 0 60920 84600.00000 0 16140244.698 3796356.208 19414969.063 10 0 60920 85500.00000 0 17788702.537 5361752.276 17509959.543 10 0 60921 0.00000 0 19355182.060 6634908.953 15265731.215 10 0 60921 900.00000 0 20777229.425 7611451.007 12725678.965 10 0 60921 1800.00000 0 21994784.866 8299515.551 9938945.968 10 0 60921 2700.00000 0 22952699.283 8719153.921 6959483.641 10 0 60921 3600.00000 0 23603067.978 8901235.627 3845017.242 10 0 60921 4500.00000 0 23907284.359 8885901.021 655935.073 10 0 60921 5400.00000 0 23837726.580 8720627.503 -2545877.658 10 0 60921 6300.00000 0 23379005.195 8457990.657 -5698238.050 10 0 60921 7200.00000 0 22528717.885 8153214.839 -8739874.415 10 0 60921 8100.00000 0 21297677.881 7861617.007 -11611621.111 10 0 60921 9000.00000 0 19709604.697 7636052.423 -14257575.518 10 0 60921 9900.00000 0 17800288.462 7524471.117 -16626193.906 10 0 60921 10800.00000 0 15616261.402 7567689.610 -18671304.096 10 0 60921 11700.00000 0 13213030.913 7797473.443 -20353014.430 10 0 60921 12600.00000 0 10652947.293 8235013.053 -21638500.547 10 0 60921 13500.00000 0 8002794.755 8889858.901 -22502654.015 10 0 60921 14400.00000 0 5331206.056 9759362.337 -22928579.600 10 0 60921 15300.00000 0 2706008.676 10828647.133 -22907930.993 10 0 60921 16200.00000 0 191613.331 12071114.116 -22441078.083 10 0 60921 17100.00000 0 -2153446.127 13449458.529 -21537102.225 10 0 60921 18000.00000 0 -4278718.773 14917157.936 -20213619.394 10 0 60921 18900.00000 0 -6143696.721 16420368.267 -18496434.588 10 0 60921 19800.00000 0 -7719252.102 17900148.203 -16419034.266 10 0 60921 20700.00000 0 -8988591.605 19294917.891 -14021926.936 10 0 60921 21600.00000 0 -9947689.849 20543047.939 -11351845.143 10 0 60921 22500.00000 0 -10605185.011 21585469.003 -8460825.012 10 0 60921 23400.00000 0 -10981743.016 22368191.318 -5405182.078 10 0 60921 24300.00000 0 -11108919.187 22844627.463 -2244404.318 10 0 60921 25200.00000 0 -11027567.581 22977620.094 960015.076 10 0 60921 26100.00000 0 -10785867.336 22741089.075 4145781.373 10 0 60921 27000.00000 0 -10437051.328 22121228.847 7251014.148 10 0 60921 27900.00000 0 -10036934.819 21117206.053 10215450.976 10 0 60921 28800.00000 0 -9641349.676 19741328.770 12981615.185 10 0 60921 29700.00000 0 -9303593.301 18018680.968 15495925.062 10 0 60921 30600.00000 0 -9072000.135 15986238.231 17709723.427 10 0 60921 31500.00000 0 -8987737.938 13691502.282 19580208.450 10 0 60921 32400.00000 0 -9082921.065 11190711.581 21071248.824 10 0 60921 33300.00000 0 -9379119.358 8546702.406 22154068.951 10 0 60921 34200.00000 0 -9886324.461 5826508.871 22807792.272 10 0 60921 35100.00000 0 -10602416.289 3098800.535 23019833.672 10 0 60921 36000.00000 0 -11513151.622 431262.502 22786134.529 10 0 60921 36900.00000 0 -12592675.290 -2111975.041 22111236.683 10 0 60921 37800.00000 0 -13804532.993 -4472753.185 21008194.329 10 0 60921 38700.00000 0 -15103144.229 -6601048.335 19498325.456 10 0 60921 39600.00000 0 -16435674.883 -8456795.857 17610807.144 10 0 60921 40500.00000 0 -17744232.481 -10011299.208 15382121.665 10 0 60921 41400.00000 0 -18968293.656 -11248167.146 12855362.895 10 0 60921 42300.00000 0 -20047263.374 -12163740.815 10079415.163 10 0 60921 43200.00000 0 -20923059.621 -12766993.366 7108019.063 10 0 60921 44100.00000 0 -21542615.643 -13078906.506 3998741.094 10 0 60921 45000.00000 0 -21860194.692 -13131350.029 811866.123 10 0 60921 45900.00000 0 -21839419.477 -12965511.245 -2390766.535 10 0 60921 46800.00000 0 -21454930.009 -12629940.221 -5546961.213 10 0 60921 47700.00000 0 -20693598.617 -12178293.117 -8595374.831 10 0 60921 48600.00000 0 -19555249.318 -11666868.975 -11476712.916 10 0 60921 49500.00000 0 -18052849.305 -11152044.300 -14134888.905 10 0 60921 50400.00000 0 -16212162.588 -10687714.460 -16518123.448 10 0 60921 51300.00000 0 -14070878.437 -10322850.881 -18579961.548 10 0 60921 52200.00000 0 -11677249.528 -10099278.310 -20280186.950 10 0 60921 53100.00000 0 -9088295.527 -10049767.263 -21585615.221 10 0 60921 54000.00000 0 -6367646.238 -10196523.481 -22470749.400 10 0 60921 54900.00000 0 -3583113.773 -10550139.373 -22918284.897 10 0 60921 55800.00000 0 -804094.766 -11109052.850 -22919453.301 10 0 60921 56700.00000 0 1901089.143 -11859537.357 -22474198.020 10 0 60921 57600.00000 0 4467801.681 -12776224.251 -21591178.035 10 0 60921 58500.00000 0 6837544.222 -13823135.995 -20287599.453 10 0 60921 59400.00000 0 8960147.816 -14955186.793 -18588878.086 10 0 60921 60300.00000 0 10795613.698 -16120087.268 -16528139.635 10 0 60921 61200.00000 0 12315525.943 -17260572.481 -14145567.434 10 0 60921 62100.00000 0 13503978.088 -18316858.682 -11487610.886 10 0 60921 63000.00000 0 14357976.210 -19229224.400 -8606070.561 10 0 60921 63900.00000 0 14887303.214 -19940606.067 -5557078.634 10 0 60921 64800.00000 0 15113852.014 -20399097.906 -2399995.433 10 0 60921 65700.00000 0 15070457.845 -20560249.897 803755.405 10 0 60921 66600.00000 0 14799281.132 -20389066.472 3991889.414 10 0 60921 67500.00000 0 14349811.236 -19861621.507 7102477.147 10 0 60921 68400.00000 0 13776577.191 -18966221.676 10075149.055 10 0 60921 69300.00000 0 13136663.512 -17704069.580 12852265.589 10 0 60921 70200.00000 0 12487136.907 -16089399.260 15380029.803 10 0 60921 71100.00000 0 11882492.824 -14149078.936 17609521.349 10 0 60921 72000.00000 0 11372229.407 -11921698.024 19497632.547 10 0 60921 72900.00000 0 10998650.435 -9456176.794 21007889.620 10 0 60921 73800.00000 0 10794988.772 -6809956.467 22111144.527 10 0 60921 74700.00000 0 10783928.136 -4046844.601 22786125.462 10 0 60921 75600.00000 0 10976584.163 -1234604.309 23019836.793 10 0 60921 76500.00000 0 11371986.641 1557613.980 22807801.877 10 0 60921 77400.00000 0 11957084.066 4261893.394 22154144.896 10 0 60921 78300.00000 0 12707270.174 6814117.356 21071510.603 10 0 60921 79200.00000 0 13587410.743 9156377.768 19580823.447 10 0 60921 80100.00000 0 14553328.335 11239126.586 17710890.291 10 0 60921 81000.00000 0 15553683.833 13022983.136 15497853.523 10 0 60921 81900.00000 0 16532177.075 14480123.388 12984503.950 10 0 60921 82800.00000 0 17429975.478 15595194.275 10219465.481 10 0 60921 83700.00000 0 18188269.675 16365715.498 7256266.036 10 0 60921 84600.00000 0 18750849.500 16801952.258 4152311.398 10 0 60921 85500.00000 0 19066592.184 16926264.158 967780.967 10 0 60922 0.00000 0 19091757.816 16771957.425 -2235533.640 10 0 60922 900.00000 0 18791994.539 16381688.241 -5395426.668 10 0 60922 1800.00000 0 18143967.771 15805484.443 -8450485.422 10 0 60922 2700.00000 0 17136543.208 15098468.574 -11341288.574 10 0 60922 3600.00000 0 15771471.683 14318378.576 -14011567.478 10 0 60922 4500.00000 0 14063545.054 13522991.095 -16409308.887 10 0 60922 5400.00000 0 12040214.399 12767556.725 -18487776.563 10 0 60922 6300.00000 0 9740684.586 12102356.273 -20206431.127 10 0 60922 7200.00000 0 7214521.424 11570482.098 -21531729.433 10 0 60922 8100.00000 0 4519828.311 11205939.163 -22437787.254 10 0 60922 9000.00000 0 1721067.531 11032146.877 -22906891.798 10 0 60922 9900.00000 0 -1113383.467 11060905.812 -22929853.544 10 0 60922 10800.00000 0 -3913839.255 11291873.598 -22506190.193 10 0 60922 11700.00000 0 -6611968.497 11712572.619 -21644138.816 10 0 60922 12600.00000 0 -9143399.902 12298929.462 -20360495.767 10 0 60922 13500.00000 0 -11450163.376 13016323.337 -18680287.389 10 0 60922 14400.00000 0 -13482864.636 13821098.977 -16636277.922 10 0 60922 15300.00000 0 -15202502.716 14662479.604 -14268324.453 10 0 60922 16200.00000 0 -16581855.005 15484798.413 -11622591.815 10 0 60922 17100.00000 0 -17606372.764 16229953.417 -8750643.318 10 0 60922 18000.00000 0 -18274550.913 16839980.893 -5708425.826 10 0 60922 18900.00000 0 -18597758.230 17259637.700 -2555169.863 10 0 60922 19800.00000 0 -18599537.061 17438882.468 647772.813 10 0 60922 20700.00000 0 -18314404.129 17335150.123 3838130.486 10 0 60922 21600.00000 0 -17786205.058 16915323.302 6953927.305 10 0 60922 22500.00000 0 -17066093.976 16157317.304 9934689.350 10 0 60922 23400.00000 0 -16210224.989 15051211.879 12722617.011 10 0 60922 24300.00000 0 -15277254.079 13599882.533 15263700.980 10 0 60922 25200.00000 0 -14325757.346 11819105.151 17508760.547 10 0 60922 26100.00000 0 -13411674.416 9737129.888 19414384.903 10 0 60922 27000.00000 0 -12585884.139 7393742.298 20943760.300 10 0 60922 27900.00000 0 -11892013.566 4838850.737 22067368.486 10 0 60922 28800.00000 0 -11364571.053 2130658.419 22763544.293 10 0 60922 29700.00000 0 -11027480.426 -666504.747 23018883.049 10 0 60922 30600.00000 0 -10893076.440 -3484601.832 22828491.097 10 0 60922 31500.00000 0 -10961602.492 -6254461.233 22196075.489 10 0 60922 32400.00000 0 -11221230.988 -8908396.916 21133871.536 10 0 60922 33300.00000 0 -11648605.163 -11382769.887 19662409.635 10 0 60922 34200.00000 0 -12209879.878 -13620386.501 17810125.411 10 0 60922 35100.00000 0 -12862218.287 -15572635.800 15612819.867 10 0 60922 36000.00000 0 -13555682.459 -17201278.469 13112978.808 10 0 60922 36900.00000 0 -14235439.558 -18479813.981 10358963.437 10 0 60922 37800.00000 0 -14844191.809 -19394369.542 7404086.402 10 0 60922 38700.00000 0 -15324728.794 -19944073.974 4305589.964 10 0 60922 39600.00000 0 -15622494.981 -20140900.769 1123545.072 10 0 60922 40500.00000 0 -15688064.284 -20008986.581 -2080308.015 10 0 60922 41400.00000 0 -15479416.722 -19583453.345 -5243755.464 10 0 60922 42300.00000 0 -14963920.115 -18908783.096 -8305318.747 10 0 60922 43200.00000 0 -14119931.710 -18036813.586 -11205452.882 10 0 60922 44100.00000 0 -12937950.319 -17024438.980 -13887710.279 10 0 60922 45000.00000 0 -11421268.309 -15931112.628 -16299846.788 10 0 60922 45900.00000 0 -9586093.759 -14816257.520 -18394847.698 10 0 60922 46800.00000 0 -7461135.440 -13736694.098 -20131852.917 10 0 60922 47700.00000 0 -5086666.027 -12744194.565 -21476962.564 10 0 60922 48600.00000 0 -2513101.029 -11883267.486 -22403906.602 10 0 60922 49500.00000 0 200848.545 -11189266.807 -22894564.915 10 0 60922 50400.00000 0 2990373.556 -10686905.632 -22939327.179 10 0 60922 51300.00000 0 5787023.121 -10389237.877 -22537285.144 10 0 60922 52200.00000 0 8521317.881 -10297151.024 -21696253.232 10 0 60922 53100.00000 0 11125411.233 -10399391.405 -20432616.865 10 0 60922 54000.00000 0 13535687.507 -10673120.739 -18771011.334 10 0 60922 54900.00000 0 15695188.635 -11084979.955 -16743837.494 10 0 60922 55800.00000 0 17555767.995 -11592614.644 -14390623.901 10 0 60922 56700.00000 0 19079881.679 -12146596.741 -11757248.213 10 0 60922 57600.00000 0 20241942.783 -12692660.110 -8895033.559 10 0 60922 58500.00000 0 21029182.901 -13174154.252 -5859738.302 10 0 60922 59400.00000 0 21441985.962 -13534611.187 -2710459.777 10 0 60922 60300.00000 0 21493682.040 -13720315.778 491525.635 10 0 60922 61200.00000 0 21209811.670 -13682769.868 3683962.448 10 0 60922 62100.00000 0 20626893.635 -13380945.364 6804831.764 10 0 60922 63000.00000 0 19790750.038 -12783230.696 9793558.379 10 0 60922 63900.00000 0 18754460.960 -11868988.371 12592185.382 10 0 60922 64800.00000 0 17576036.188 -10629658.097 15146493.421 10 0 60922 65700.00000 0 16315902.882 -9069359.278 17407043.308 10 0 60922 66600.00000 0 15034315.171 -7204967.827 19330122.481 10 0 60922 67500.00000 0 13788794.291 -5065664.204 20878578.144 10 0 60922 68400.00000 0 12631705.903 -2691971.443 22022522.292 10 0 60922 69300.00000 0 11608075.039 -134322.891 22739896.410 10 0 60922 70200.00000 0 10753728.734 2548781.514 23016886.382 10 0 60922 71100.00000 0 10093842.573 5292954.994 22848180.761 10 0 60922 72000.00000 0 9641950.505 8030350.684 22237068.329 10 0 60922 72900.00000 0 9399458.167 10692236.504 21195373.522 10 0 60922 73800.00000 0 9355679.221 13211613.259 19743230.992 10 0 60922 74700.00000 0 9488392.782 15525769.221 17908703.226 10 0 60922 75600.00000 0 9764898.612 17578666.880 15727247.781 10 0 60922 76500.00000 0 10143526.207 19323064.165 13241043.289 10 0 60922 77400.00000 0 10575535.097 20722282.899 10498185.971 10 0 60922 78300.00000 0 11007327.185 21751551.457 7551770.876 10 0 60922 79200.00000 0 11382878.777 22398865.820 4458874.361 10 0 60922 80100.00000 0 11646290.262 22665332.855 1279456.538 10 0 60922 81000.00000 0 11744346.058 22564981.024 -1924795.760 10 0 60922 81900.00000 0 11628976.484 22124045.891 -5091663.480 10 0 60922 82800.00000 0 11259516.798 21379759.760 -8159604.108 10 0 60922 83700.00000 0 10604666.746 20378695.785 -11068950.970 10 0 60922 84600.00000 0 9644066.215 19174735.781 -13763079.280 10 0 60922 85500.00000 0 8369418.477 17826747.065 -16189515.518 10 0 60923 0.00000 0 6785111.649 16396066.303 -18300967.648 10 0 60923 900.00000 0 4908308.991 14943895.759 -20056256.391 10 0 60923 1800.00000 0 2768504.215 13528723.902 -21421125.908 10 0 60923 2700.00000 0 406555.669 12203876.916 -22368921.183 10 0 60923 3600.00000 0 -2126759.861 11015306.559 -22881115.458 10 0 60923 4500.00000 0 -4772615.320 9999707.235 -22947678.093 10 0 60923 5400.00000 0 -7466346.270 9183041.910 -22567275.125 10 0 60923 6300.00000 0 -10139916.699 8579539.068 -21747298.268 10 0 60923 7200.00000 0 -12724535.038 8191202.828 -20503721.594 10 0 60923 8100.00000 0 -15153311.227 8007856.439 -18860788.559 10 0 60923 9000.00000 0 -17363843.803 8007716.662 -16850535.477 10 0 60923 9900.00000 0 -19300628.758 8158473.841 -14512160.906 10 0 60923 10800.00000 0 -20917189.485 8418830.918 -11891253.604 10 0 60923 11700.00000 0 -22177838.826 8740434.981 -9038894.604 10 0 60923 12600.00000 0 -23058999.931 9070118.245 -6010651.717 10 0 60923 13500.00000 0 -23550031.357 9352352.190 -2865486.939 10 0 60923 14400.00000 0 -23653523.017 9531809.622 335400.956 10 0 60923 15300.00000 0 -23385052.036 9555925.020 3529775.025 10 0 60923 16200.00000 0 -22772410.561 9377343.906 6655575.718 10 0 60923 17100.00000 0 -21854339.795 8956157.009 9652129.028 10 0 60923 18000.00000 0 -20678825.262 8261824.510 12461323.270 10 0 60923 18900.00000 0 -19301026.460 7274709.100 15028731.584 10 0 60923 19800.00000 0 -17780928.975 5987153.415 17304658.771 10 0 60923 20700.00000 0 -16180818.223 4404056.726 19245092.855 10 0 60923 21600.00000 0 -14562680.783 2542926.856 20812544.092 10 0 60923 22500.00000 0 -12985641.627 433405.088 21976756.511 10 0 60923 23400.00000 0 -11503543.467 -1883716.367 22715279.683 10 0 60923 24300.00000 0 -10162767.996 -4357944.050 23013891.067 10 0 60923 25200.00000 0 -9000388.406 -6930940.803 22866862.013 10 0 60923 26100.00000 0 -8042728.639 -9538715.320 22277063.192 10 0 60923 27000.00000 0 -7304387.989 -12114054.453 21255907.890 10 0 60923 27900.00000 0 -6787770.475 -14589099.137 19823134.325 10 0 60923 28800.00000 0 -6483137.755 -16897958.834 18006430.763 10 0 60923 29700.00000 0 -6369182.854 -18979257.649 15840909.871 10 0 60923 30600.00000 0 -6414100.605 -20778507.778 13368441.331 10 0 60923 31500.00000 0 -6577110.103 -22250212.595 10636854.339 10 0 60923 32400.00000 0 -6810365.735 -23359612.426 7699024.071 10 0 60923 33300.00000 0 -7061176.873 -24084000.393 4611858.540 10 0 60923 34200.00000 0 -7274443.203 -24413553.086 1435204.456 10 0 60923 35100.00000 0 -7395203.171 -24351640.803 -1769307.447 10 0 60923 36000.00000 0 -7371187.825 -23914603.554 -4939455.641 10 0 60923 36900.00000 0 -7155271.606 -23131001.387 -8013636.444 10 0 60923 37800.00000 0 -6707715.533 -22040369.650 -10932064.352 10 0 60923 38700.00000 0 -5998106.535 -20691530.795 -13637940.245 10 0 60923 39600.00000 0 -5006909.246 -19140533.179 -16078564.033 10 0 60923 40500.00000 0 -3726562.680 -17448303.219 -18206369.349 10 0 60923 41400.00000 0 -2162073.349 -15678109.602 -19979859.356 10 0 60923 42300.00000 0 -331077.589 -13892946.268 -21364424.707 10 0 60923 43200.00000 0 1736631.643 -12152944.455 -22333027.014 10 0 60923 44100.00000 0 4000095.577 -10512922.881 -22866733.994 10 0 60923 45000.00000 0 6408658.117 -9020179.318 -22955095.299 10 0 60923 45900.00000 0 8903851.714 -7712616.522 -22596351.361 10 0 60923 46800.00000 0 11421622.649 -6617281.301 -21797470.826 10 0 60923 47700.00000 0 13894803.071 -5749377.901 -20574015.617 10 0 60923 48600.00000 0 16255726.666 -5111796.733 -18949836.147 10 0 60923 49500.00000 0 18438878.485 -4695177.439 -16956602.585 10 0 60923 50400.00000 0 20383467.897 -4478502.593 -14633181.489 10 0 60923 51300.00000 0 22035816.772 -4430195.622 -12024870.304 10 0 60923 52200.00000 0 23351462.774 -4509675.066 -9182505.171 10 0 60923 53100.00000 0 24296889.717 -4669297.809 -6161460.202 10 0 60923 54000.00000 0 24850812.815 -4856607.383 -3020558.630 10 0 60923 54900.00000 0 25004965.677 -5016790.588 179081.974 10 0 60923 55800.00000 0 24764357.067 -5095236.945 3375246.850 10 0 60923 56700.00000 0 24146988.084 -5040091.465 6505839.336 10 0 60923 57600.00000 0 23183043.189 -4804691.807 9510089.942 10 0 60923 58500.00000 0 21913590.698 -4349786.256 12329735.190 10 0 60923 59400.00000 0 20388848.777 -3645438.623 14910143.294 10 0 60923 60300.00000 0 18666090.887 -2672539.751 17201365.164 10 0 60923 61200.00000 0 16807279.235 -1423862.195 19159091.054 10 0 60923 62100.00000 0 14876525.562 95386.027 20745495.442 10 0 60923 63000.00000 0 12937485.125 1867531.764 21929955.111 10 0 60923 63900.00000 0 11050791.883 3862932.473 22689627.964 10 0 60923 64800.00000 0 9271640.620 6040977.156 23009882.854 10 0 60923 65700.00000 0 7647615.151 8351551.581 22884573.318 10 0 60923 66600.00000 0 6216851.369 10736907.970 22316150.881 10 0 60923 67500.00000 0 5006609.870 13133862.906 21315616.262 10 0 60923 68400.00000 0 4032316.053 15476233.829 19902309.478 10 0 60923 69300.00000 0 3297106.397 17697414.635 18103542.504 10 0 60923 70200.00000 0 2791898.934 19732985.042 15954080.809 10 0 60923 71100.00000 0 2495984.425 21523246.688 13495482.638 10 0 60923 72000.00000 0 2378113.320 23015581.480 10775307.537 10 0 60923 72900.00000 0 2398033.042 24166534.633 7846208.111 10 0 60923 73800.00000 0 2508411.282 24943535.657 4764921.286 10 0 60923 74700.00000 0 2657064.711 25326185.146 1591177.620 10 0 60923 75600.00000 0 2789399.352 25307052.902 -1613450.940 10 0 60923 76500.00000 0 2850959.609 24891953.029 -4786742.980 10 0 60923 77400.00000 0 2789977.920 24099683.375 -7867036.065 10 0 60923 78300.00000 0 2559816.502 22961239.146 -10794428.056 10 0 60923 79200.00000 0 2121196.820 21518532.653 -13511947.429 10 0 60923 80100.00000 0 1444121.001 19822672.102 -15966669.178 10 0 60923 81000.00000 0 509402.216 17931871.088 -18110753.803 10 0 60923 81900.00000 0 -690262.643 15909076.167 -19902388.412 10 0 60923 82800.00000 0 -2149725.337 13819411.998 -21306610.814 10 0 60923 83700.00000 0 -3851349.719 11727551.271 -22295999.901 10 0 60923 84600.00000 0 -5765509.789 9695119.940 -22851218.272 10 0 60923 85500.00000 0 -7851603.126 7778246.762 -22961396.022 99